Location: Unnamed
(23.5608°S, 46.6833°W)
Time: 18:08:26
(UTC-03:00)

deb Kosmos-375 - Visible Passes

Search period start: 27 May 2024 00:00
Search period end: 06 June 2024 00:00
Orbit: 626 x 1937 km, 63.1° (Epoch: 26 May)

Date Brightness Start Highest point End Pass type
(mag) Time Alt. Az. Time Alt. Az. Time Alt. Az.
27 May ? 03:35:54 12° SSE 03:41:08 20° SE 03:47:58 10° E visible
27 May ? 05:27:42 10° SSW 05:36:32 85° WNW 05:47:41 10° NNE visible
27 May ? 17:53:58 10° NE 17:56:11 14° ENE 17:58:22 10° E visible
27 May ? 19:46:39 10° WNW 19:50:07 27° WSW 19:50:07 27° WSW visible
28 May ? 03:42:32 17° SSE 03:47:28 27° ESE 03:55:48 10° ENE visible
28 May ? 05:33:54 10° SW 05:42:43 66° WNW 05:53:44 10° NNE visible
28 May ? 17:58:37 10° NNE 18:02:09 23° ENE 18:05:30 11° ESE visible
28 May ? 19:53:43 10° W 19:56:39 17° SW 19:56:47 17° SW visible
29 May ? 03:49:14 23° SSE 03:53:45 36° ESE 04:03:10 10° ENE visible
29 May ? 05:40:32 11° SW 05:48:55 51° WNW 05:59:32 10° N visible
29 May ? 18:03:58 10° N 18:08:08 38° ENE 18:12:07 11° SE visible
29 May ? 20:01:52 10° WSW 20:02:58 11° SW 20:03:25 11° SW visible
30 May ? 03:56:01 31° S 03:59:58 47° ESE 04:10:12 10° NE visible
30 May ? 05:47:18 12° SW 05:55:06 39° WNW 06:05:03 10° N visible
30 May ? 18:09:43 10° NNW 18:14:09 67° ENE 18:18:37 10° SSE visible
31 May ? 04:02:51 42° S 04:06:10 61° ESE 04:16:57 10° NE visible
31 May ? 05:54:09 12° WSW 06:01:16 29° WNW 06:10:13 10° NNW visible
31 May ? 18:15:46 10° NNW 18:20:11 71° WSW 18:24:43 10° SSE visible
01 Jun ? 02:18:26 14° ESE 02:18:26 14° ESE 02:21:48 10° E visible
01 Jun ? 04:09:44 54° S 04:12:21 79° ESE 04:23:26 10° NNE visible
01 Jun ? 06:01:02 11° WSW 06:07:25 21° WNW 06:14:55 10° NNW visible
01 Jun ? 18:22:06 10° NW 18:26:17 41° WSW 18:30:37 10° SSE visible
02 Jun ? 02:25:21 19° ESE 02:25:21 19° ESE 02:30:13 10° E visible
02 Jun ? 04:16:40 64° SW 04:18:33 82° WNW 04:29:41 10° NNE visible
02 Jun ? 06:08:39 10° W 06:13:31 15° WNW 06:18:47 10° NW visible
02 Jun ? 18:28:46 10° WNW 18:32:26 25° WSW 18:36:16 10° S visible
03 Jun ? 02:32:18 25° E 02:32:18 25° E 02:37:58 10° ENE visible
03 Jun ? 04:23:36 61° W 04:24:43 64° WNW 04:35:41 10° NNE visible
03 Jun ? 18:35:55 10° W 18:38:41 16° SW 18:41:34 10° SSW visible
04 Jun ? 02:39:15 30° E 02:39:15 30° E 02:45:17 10° ENE visible
04 Jun ? 04:30:33 49° WNW 04:30:54 49° WNW 04:41:27 10° N visible
05 Jun ? 02:46:12 33° ENE 02:46:12 33° ENE 02:52:16 10° NE visible
05 Jun ? 04:37:30 37° WNW 04:37:30 37° WNW 04:46:54 10° N visible
